Location: Menands
(42.6920°N, 73.7246°W)
Time: 07:56:16
(UTC+00:00)

Resurs 01 Rocket - Pass Details

Date: 18 February 2026
Orbit: 627 x 635 km, 97.7° (Epoch: 11 March)

Event Time Altitude Azimuth Distance (km) Brightness Sun altitude
Rises 23:35:03 0° 157° (SSE) 2,913 4.8 -12.5°
Reaches altitude 10° 23:37:15 10° 154° (SSE) 2,011 4.0 -12.9°
Maximum altitude 23:41:34 62° 75° (ENE) 717 1.6 -13.7°
Drops below altitude 10° 23:45:56 10° 354° (N) 2,030 4.2 -14.5°
Sets 23:48:10 0° 351° (N) 2,943 5.1 -14.9°
